Time,TemperatureF,DewpointF,PressureIn,WindDirection,WindDirectionDegrees,WindSpeedMPH,WindSpeedGustMPH,Humidity,HourlyPrecipIn,Conditions,Clouds,dailyrainin,SolarRadiationWatts/m^2,SoftwareType,DateUTC
2013-02-13 01:00:00,35.0,24.0,29.80,WSW,243,8.0,-999.0,65,-99.99,,,-99.99,0.000000,,2013-02-13 08:00:00,
2013-02-13 01:52:00,35.0,24.0,29.80,WSW,243,8.0,-999.0,65,-99.99,,,-99.99,0.000000,,2013-02-13 08:52:00,
2013-02-13 02:00:00,38.0,25.0,29.78,WSW,238,8.0,-999.0,58,-99.99,,,-99.99,0.000000,,2013-02-13 09:00:00,
2013-02-13 02:52:00,38.0,25.0,29.78,WSW,238,8.0,-999.0,58,-99.99,,,-99.99,0.000000,,2013-02-13 09:52:00,
2013-02-13 03:00:00,38.0,25.0,29.77,West,261,11.0,-999.0,60,-99.99,,,-99.99,0.000000,,2013-02-13 10:00:00,
2013-02-13 03:52:00,38.0,25.0,29.77,West,261,11.0,-999.0,60,-99.99,,,-99.99,0.000000,,2013-02-13 10:52:00,
2013-02-13 04:00:00,39.0,25.0,29.77,WNW,282,16.0,-999.0,57,-99.99,,,-99.99,0.000000,,2013-02-13 11:00:00,
2013-02-13 04:52:00,39.0,25.0,29.77,WNW,282,16.0,-999.0,57,-99.99,,,-99.99,0.000000,,2013-02-13 11:52:00,
2013-02-13 05:00:00,39.0,26.0,29.78,WNW,298,14.0,-999.0,58,-99.99,,,-99.99,0.000000,,2013-02-13 12:00:00,
2013-02-13 05:52:00,39.0,26.0,29.78,WNW,298,14.0,-999.0,58,-99.99,,,-99.99,0.000000,,2013-02-13 12:52:00,
2013-02-13 06:00:00,40.0,25.0,29.79,WNW,298,13.0,-999.0,56,-99.99,,,-99.99,0.000000,,2013-02-13 13:00:00,
2013-02-13 06:52:00,40.0,25.0,29.79,WNW,298,13.0,-999.0,56,-99.99,,,-99.99,0.000000,,2013-02-13 13:52:00,
2013-02-13 07:00:00,40.0,25.0,29.81,WNW,302,15.0,-999.0,55,-99.99,,,-99.99,0.000000,,2013-02-13 14:00:00,
2013-02-13 07:52:00,40.0,25.0,29.81,WNW,302,15.0,-999.0,55,-99.99,,,-99.99,0.000000,,2013-02-13 14:52:00,
2013-02-13 08:00:00,38.0,28.0,29.82,NW,310,17.0,-999.0,67,-99.99,,,-99.99,6.820000,,2013-02-13 15:00:00,
2013-02-13 08:52:00,38.0,28.0,29.82,NW,310,17.0,-999.0,67,-99.99,,,-99.99,6.820000,,2013-02-13 15:52:00,
2013-02-13 09:00:00,38.0,26.0,29.83,WNW,298,17.0,-999.0,63,-99.99,,,-99.99,68.919998,,2013-02-13 16:00:00,
2013-02-13 09:52:00,38.0,26.0,29.83,WNW,298,17.0,-999.0,63,-99.99,,,-99.99,68.919998,,2013-02-13 16:52:00,
2013-02-13 10:00:00,39.0,24.0,29.83,WNW,301,16.0,-999.0,55,-99.99,,,-99.99,155.899994,,2013-02-13 17:00:00,
2013-02-13 10:52:00,39.0,24.0,29.83,WNW,301,16.0,-999.0,55,-99.99,,,-99.99,155.899994,,2013-02-13 17:52:00,
2013-02-13 11:00:00,39.0,26.0,29.85,WNW,296,15.0,-999.0,61,-99.99,,,-99.99,199.199997,,2013-02-13 18:00:00,
2013-02-13 11:52:00,39.0,26.0,29.85,WNW,296,15.0,-999.0,61,-99.99,,,-99.99,199.199997,,2013-02-13 18:52:00,
2013-02-13 12:00:00,39.0,26.0,29.86,WNW,301,15.0,-999.0,58,-99.99,,,-99.99,229.699997,,2013-02-13 19:00:00,
2013-02-13 12:52:00,39.0,26.0,29.86,WNW,301,15.0,-999.0,58,-99.99,,,-99.99,229.699997,,2013-02-13 19:52:00,
2013-02-13 13:00:00,42.0,25.0,29.87,NW,306,18.0,-999.0,51,-99.99,,,-99.99,419.899994,,2013-02-13 20:00:00,
2013-02-13 13:52:00,42.0,25.0,29.87,NW,306,18.0,-999.0,51,-99.99,,,-99.99,419.899994,,2013-02-13 20:52:00,
2013-02-13 14:00:00,40.0,25.0,29.90,NW,319,19.0,-999.0,55,-99.99,,,-99.99,354.600006,,2013-02-13 21:00:00,
2013-02-13 14:52:00,40.0,25.0,29.90,NW,319,19.0,-999.0,55,-99.99,,,-99.99,354.600006,,2013-02-13 21:52:00,
2013-02-13 15:00:00,37.0,24.0,29.93,NW,311,14.0,-999.0,57,-99.99,,,-99.99,91.900002,,2013-02-13 22:00:00,
2013-02-13 15:52:00,37.0,24.0,29.93,NW,311,14.0,-999.0,57,-99.99,,,-99.99,91.900002,,2013-02-13 22:52:00,
2013-02-13 16:00:00,37.0,25.0,29.95,NW,317,15.0,-999.0,61,-99.99,,,-99.99,109.699997,,2013-02-13 23:00:00,
2013-02-13 16:52:00,37.0,25.0,29.95,NW,317,15.0,-999.0,61,-99.99,,,-99.99,109.699997,,2013-02-13 23:52:00,
2013-02-13 17:00:00,35.0,23.0,29.98,NW,324,14.0,-999.0,62,-99.99,,,-99.99,50.950001,,2013-02-14 00:00:00,
2013-02-13 17:52:00,35.0,23.0,29.98,NW,324,14.0,-999.0,62,-99.99,,,-99.99,50.950001,,2013-02-14 00:52:00,
2013-02-13 18:00:00,33.0,17.0,29.99,NW,319,14.0,-999.0,51,-99.99,,,-99.99,3.220000,,2013-02-14 01:00:00,
2013-02-13 18:51:00,33.0,17.0,29.99,NW,319,14.0,-999.0,51,-99.99,,,-99.99,3.220000,,2013-02-14 01:51:00,
2013-02-13 19:00:00,32.0,15.0,30.01,NW,315,15.0,-999.0,49,-99.99,,,-99.99,0.000000,,2013-02-14 02:00:00,
2013-02-13 20:00:00,31.0,17.0,30.01,NW,305,16.0,-999.0,56,-99.99,,,-99.99,0.000000,,2013-02-14 03:00:00,
2013-02-13 20:52:00,31.0,17.0,30.01,NW,305,16.0,-999.0,56,-99.99,,,-99.99,0.000000,,2013-02-14 03:52:00,
2013-02-13 21:00:00,31.0,17.0,30.02,WNW,293,13.0,-999.0,56,-99.99,,,-99.99,0.000000,,2013-02-14 04:00:00,
2013-02-13 21:52:00,31.0,17.0,30.02,WNW,293,13.0,-999.0,56,-99.99,,,-99.99,0.000000,,2013-02-14 04:52:00,
2013-02-13 22:00:00,29.0,15.0,30.03,NW,305,18.0,-999.0,55,-99.99,,,-99.99,0.000000,,2013-02-14 05:00:00,
2013-02-13 22:52:00,29.0,15.0,30.03,NW,305,18.0,-999.0,55,-99.99,,,-99.99,0.000000,,2013-02-14 05:52:00,
2013-02-13 23:00:00,27.0,16.0,30.05,NW,313,20.0,-999.0,63,-99.99,,,-99.99,0.000000,,2013-02-14 06:00:00,
2013-02-13 23:52:00,27.0,16.0,30.05,NW,313,20.0,-999.0,63,-99.99,,,-99.99,0.000000,,2013-02-14 06:52:00,